Vertical_Velocity
2 5 -2 7 1 2 4 2 -3 -6 -6 -7 -0 5 -6 2 1 -1 -1 3 -5 -4 3 -6 -5 -0 -3 -5 -4 -3 0 4 2 -2 -1 -5 -9 -2 9 5 1 0 2
1 14 -5 -11 10 4 8 -4 -7 1 -2 3 3 4 -3 0 -5 -1 -0 3 1 -4 -3 2 -1 -6 -4 -3 -1 2 -0 2 0 -4 -0 1 1 5 -13 -9 6 5 10
16 -6 3 -2 -3 10 -1 10 8 2 -3 -2 -3 2 0 -1 6 3 1 1 1 -3 0 0 3 3 2 -1 1 3 3 3 2 0 -2 -1 0 1 -0 -6 3 -2 -25
5 8 4 6 3 -3 -1 5 0 0 -4 2 2 -2 10 -4 -2 2 1 6 12 0 1 -3 1 -0 -4 -2 -2 -2 -4 -1 3 2 2 1 6 4 5 1 -10 3 -6
1 -1 -1 -2 -0 -3 -3 -1 -2 1 0 -3 13 0 2 1 -34 8 6 6 -10 5 7 7 13 7 3 -1 -1 -2 -0 -1 -2 -5 -5 -4 -0 -5 -5 -7 -2 -2 1
5 -3 1 -2 -1 -2 -3 -4 2 -0 0 5 7 1 1 2 -1 1 1 -1 -1 -0 -9 -17 6 2 1 2 2 1 -0 -2 1 1 1 -3 -3 -3 -3 -1 -2 -6 -18
-1 5 -0 -2 -3 -0 1 -4 -2 2 2 -4 -3 -7 -14 -1 -8 5 -0 1 1 2 -1 -1 -4 -4 -1 0 8 -0 -1 -1 -5 -6 -3 -2 -3 -2 -2 -4 0 4 1
0 1 4 -1 3 0 -1 4 4 2 -3 -5 1 -1 -6 -1 1 2 -4 2 0 -1 1 -2 1 -1 -1 2 2 1 -1 4 3 1 -1 2 5 1 1 1 -1 1 1
2 1 3 1 1 2 1 -3 2 -0 -1 2 -3 -3 3 3 3 -3 -3 -2 -2 4 2 1 -0 0 1 0 -1 3 1 2 1 0 2 5 1 1 -0 -5 2 -3 -6
3 2 2 0 0 -1 -1 -1 -1 -1 0 -2 -1 -1 -1 -3 -1 5 3 -1 -3 0 -3 -2 -1 1 1 0 -0 -2 2 2 -1 5 4 6 1 4 4 -0 1 1 -0
2 5 4 2 -1 -2 -0 2 -1 -1 -1 3 2 0 -0 2 -2 -1 2 0 1 -3 0 -1 2 -0 -2 1 1 -2 -1 -2 1 1 2 6 2 -1 -0 3 -1 -3 -1
0 -2 0 2 2 -1 0 -0 1 -4 -2 -0 -0 -1 -2 1 1 1 1 1 1 -2 -1 1 -3 1 1 0 1 0 -3 2 -2 -0 -2 0 -1 1 2 2 1 4 6
1 2 -1 2 1 -1 -1 -2 1 2 3 1 3 0 0 -4 -3 1 -2 -1 -1 0 1 1 1 1 2 4 -2 -2 -2 2 -3 -2 -1 -0 -2 1 -0 -2 4 3 7
-1 1 -1 -2 -1 -1 1 2 1 3 1 2 -2 -5 -3 -0 -1 -2 0 -0 3 1 1 1 2 -1 3 -0 1 2 2 -3 -1 -0 0 -1 1 -2 -0 -2 -4 -7 -3
1 2 0 1 -3 -0 1 1 3 -0 3 3 5 5 1 -2 -2 1 -2 -2 0 2 1 3 1 5 2 2 1 1 1 2 1 3 1 -1 -2 -1 0 -1 -2 -2 1
-2 2 -0 -3 -3 1 -1 -1 -2 -2 0 1 -5 5 1 3 -5 -3 -5 -4 -2 4 -2 1 0 2 1 -1 -1 -2 0 -1 -2 1 -1 -3 -0 -3 -2 -2 -3 -1 -2
1 1 3 2 2 -1 -1 -2 -2 0 -1 -2 0 -0 -0 1 -2 -1 -5 2 -4 1 6 -1 1 -2 -4 -2 -1 0 -0 1 2 -0 -5 -2 -1 0 -0 -4 -3 -2 -2
-0 1 -1 0 2 2 -1 -1 -3 -4 -2 -3 -3 -1 -1 -3 -2 1 1 3 1 5 1 3 -1 0 1 0 -1 1 -2 -2 -3 -4 -2 -1 -2 -3 -5 -5 -3 -4 -5
-2 -2 -0 0 -3 -1 2 3 -1 -1 1 -0 -2 -5 -3 -0 0 1 -1 2 1 3 3 -1 -1 -2 -3 -3 -1 -1 -1 -2 -2 -2 -2 -1 -0 -1 -1 -1 -3 -1 -1
-4 -1 -2 -1 1 -2 -1 -1 -3 3 -3 -0 0 -4 -5 -3 -2 1 2 4 2 2 -1 -4 -3 -2 -2 -2 -2 -0 0 -3 -3 -2 -2 -2 -3 -1 -1 -3 -3 -3 -3
3 -2 -2 0 3 0 1 -0 -1 -2 10 1 -2 -3 -2 -1 -1 -2 -4 1 -1 -1 -1 -1 -1 -1 -4 -1 0 -2 -2 -2 -1 -1 -3 -1 -0 -1 -2 -2 -2 -3 -4
7 -1 7 4 2 -4 1 -0 1 -1 4 -0 -1 -1 -2 -0 2 1 4 -0 -1 -1 -3 -1 -0 -0 -2 -1 -1 -1 -4 -1 -1 -1 -1 -1 -1 -1 -2 -2 -3 -3 -2
-0 9 -39 -15 8 -0 -1 2 2 1 1 6 1 5 1 -3 4 4 4 -2 -1 0 -2 -2 1 0 -3 -1 -2 -5 -1 -1 -1 -3 -1 -1 -1 -1 -2 -4 -5 -6 -6
6 -2 7 -6 -4 4 -1 -4 3 1 4 -1 2 1 -2 -6 -5 3 3 -0 -2 -2 -2 -3 -2 -0 -1 -1 -2 -0 -0 -0 -1 -3 -2 -1 -2 -3 -5 -4 -2 -3 -4
4 8 12 9 8 15 2 0 0 -2 -0 5 9 1 -3 -3 2 2 1 3 -1 -1 -2 -2 -4 -3 -0 -1 -2 -1 -1 -1 -1 -3 -1 -2 -4 -3 -3 -3 -4 -5 -3
1 5 14 8 5 3 -12 15 9 4 -3 -4 -0 2 3 4 1 3 2 -0 -1 1 -1 -2 -0 1 0 -2 -1 -2 -1 0 -1 -0 -1 -4 -4 -4 -3 -3 -1 -0 0
Height
1574 1579 1583 1584 1587 1592 1592 1592 1592 1593 1594 1596 1597 1601 1601 1602 1603 1604 1605 1606 1606 1607 1608 1608 1607 1607 1608 1608 1609 1609 1608 1607 1606 1605 1604 1602 1601 1598 1595 1595 1594 1592 1592
1571 1575 1578 1579 1583 1588 1588 1589 1590 1591 1593 1595 1596 1597 1598 1598 1601 1602 1602 1603 1603 1605 1606 1606 1606 1606 1605 1605 1606 1605 1604 1604 1603 1602 1601 1600 1598 1594 1592 1591 1590 1589 1588
1569 1573 1577 1581 1581 1584 1585 1586 1588 1588 1588 1591 1592 1594 1595 1597 1598 1598 1598 1599 1599 1600 1602 1602 1603 1603 1601 1601 1601 1599 1599 1599 1600 1599 1598 1597 1595 1592 1589 1588 1587 1587 1585
1566 1570 1573 1576 1578 1578 1580 1582 1584 1584 1586 1588 1589 1590 1591 1592 1594 1593 1593 1595 1596 1597 1600 1600 1600 1599 1598 1598 1597 1597 1597 1596 1595 1594 1593 1592 1590 1589 1587 1585 1584 1584 1582
1564 1566 1570 1572 1573 1575 1576 1578 1579 1580 1582 1585 1586 1586 1587 1590 1587 1593 1592 1594 1593 1595 1596 1597 1598 1596 1595 1595 1594 1595 1595 1593 1592 1591 1590 1588 1587 1585 1585 1584 1583 1580 1579
1561 1564 1568 1569 1571 1572 1573 1574 1574 1574 1577 1580 1581 1582 1585 1587 1589 1589 1590 1591 1592 1591 1593 1589 1592 1592 1591 1592 1593 1592 1592 1591 1590 1589 1587 1586 1586 1586 1585 1583 1580 1577 1574
1557 1561 1563 1567 1568 1569 1571 1572 1570 1571 1572 1574 1577 1579 1582 1584 1586 1586 1586 1587 1588 1589 1589 1589 1589 1589 1590 1589 1589 1590 1590 1589 1587 1586 1585 1585 1583 1583 1582 1579 1578 1575 1573
1556 1559 1561 1563 1566 1567 1569 1569 1570 1570 1571 1574 1577 1578 1580 1582 1583 1582 1583 1584 1584 1584 1585 1585 1587 1587 1587 1586 1585 1585 1585 1584 1584 1583 1582 1582 1581 1580 1578 1575 1573 1570 1569
1554 1557 1560 1560 1563 1564 1565 1567 1567 1569 1571 1572 1574 1577 1578 1579 1580 1580 1582 1582 1582 1582 1583 1582 1583 1583 1583 1582 1582 1582 1581 1580 1579 1579 1578 1578 1577 1576 1572 1570 1569 1566 1564
1552 1555 1557 1557 1560 1563 1564 1564 1567 1568 1570 1571 1572 1575 1576 1576 1577 1577 1577 1579 1579 1580 1581 1581 1581 1580 1580 1579 1578 1578 1578 1577 1576 1576 1575 1574 1573 1571 1569 1567 1566 1564 1562
1549 1552 1554 1555 1558 1561 1563 1563 1564 1566 1568 1569 1569 1572 1572 1571 1571 1573 1575 1575 1575 1576 1577 1578 1578 1577 1577 1576 1574 1573 1573 1573 1572 1571 1570 1570 1569 1568 1567 1565 1564 1562 1560
1548 1551 1553 1554 1556 1558 1560 1562 1563 1565 1566 1566 1568 1568 1569 1569 1569 1571 1571 1572 1573 1573 1574 1574 1575 1575 1574 1572 1571 1570 1569 1568 1567 1566 1565 1564 1562 1563 1562 1561 1560 1560 1559
1547 1549 1551 1553 1554 1556 1558 1560 1562 1562 1563 1564 1565 1564 1565 1566 1568 1568 1568 1569 1570 1571 1571 1570 1570 1571 1570 1570 1567 1566 1564 1563 1563 1563 1563 1561 1560 1559 1557 1556 1555 1553 1553
1549 1549 1551 1552 1554 1554 1556 1558 1559 1560 1561 1561 1562 1563 1563 1563 1564 1566 1566 1566 1567 1566 1568 1567 1567 1567 1568 1566 1565 1565 1562 1562 1561 1561 1560 1560 1557 1555 1553 1551 1549 1548 1546
1549 1550 1551 1552 1553 1554 1555 1556 1557 1558 1559 1560 1560 1562 1562 1561 1562 1564 1564 1565 1564 1564 1564 1565 1564 1566 1564 1564 1563 1563 1561 1561 1559 1559 1556 1555 1553 1552 1549 1548 1546 1544 1543
1551 1551 1551 1552 1553 1553 1554 1555 1556 1556 1557 1558 1558 1559 1560 1559 1561 1563 1561 1561 1562 1561 1562 1562 1561 1561 1560 1560 1560 1560 1559 1557 1557 1556 1552 1552 1549 1548 1546 1544 1543 1542 1539
1550 1550 1551 1551 1552 1551 1553 1553 1554 1555 1555 1555 1555 1555 1556 1557 1557 1558 1559 1559 1559 1560 1560 1560 1559 1557 1558 1558 1558 1558 1557 1555 1553 1552 1552 1550 1548 1546 1543 1541 1541 1539 1537
1548 1548 1548 1550 1550 1551 1551 1551 1552 1552 1553 1554 1554 1553 1552 1552 1553 1554 1556 1556 1557 1559 1560 1558 1557 1557 1556 1556 1556 1555 1554 1553 1552 1551 1551 1548 1546 1544 1542 1541 1540 1536 1534
1546 1547 1547 1548 1549 1550 1550 1551 1550 1551 1551 1551 1551 1551 1551 1550 1551 1552 1554 1555 1556 1556 1555 1555 1555 1555 1555 1555 1554 1554 1552 1552 1551 1550 1549 1547 1546 1544 1541 1539 1537 1535 1531
1542 1543 1543 1544 1545 1545 1546 1547 1547 1548 1547 1548 1549 1549 1550 1550 1551 1552 1554 1555 1554 1554 1552 1553 1554 1554 1553 1553 1553 1553 1551 1550 1550 1548 1548 1547 1545 1543 1540 1537 1534 1531 1528
1538 1539 1540 1541 1542 1542 1542 1542 1543 1544 1546 1545 1546 1548 1549 1551 1551 1551 1552 1553 1552 1552 1552 1552 1552 1551 1551 1551 1551 1550 1550 1548 1547 1547 1546 1545 1542 1539 1536 1534 1531 1528 1524
1533 1534 1535 1537 1537 1538 1538 1539 1539 1541 1542 1542 1543 1545 1547 1548 1550 1550 1550 1550 1551 1550 1550 1551 1550 1550 1549 1549 1549 1548 1547 1546 1546 1545 1544 1542 1539 1536 1533 1531 1528 1525 1522
1527 1527 1528 1532 1533 1534 1536 1536 1536 1537 1539 1540 1541 1543 1544 1546 1547 1548 1548 1548 1548 1548 1548 1549 1549 1548 1547 1547 1546 1546 1545 1544 1543 1543 1541 1539 1536 1533 1530 1528 1525 1522 1519
1519 1521 1522 1523 1528 1527 1529 1531 1532 1534 1535 1537 1537 1539 1541 1542 1543 1544 1545 1546 1546 1546 1546 1547 1547 1547 1546 1545 1544 1543 1543 1542 1541 1539 1537 1535 1532 1529 1527 1525 1523 1520 1516
1514 1515 1516 1516 1518 1521 1523 1524 1526 1528 1530 1532 1534 1535 1536 1538 1540 1541 1542 1543 1544 1544 1544 1544 1544 1544 1543 1542 1541 1541 1540 1539 1538 1536 1534 1531 1529 1527 1525 1523 1520 1516 1513
1508 1508 1508 1509 1511 1513 1516 1519 1521 1523 1525 1527 1529 1531 1532 1534 1535 1537 1538 1539 1540 1541 1541 1542 1542 1542 1540 1540 1539 1538 1537 1536 1535 1532 1530 1527 1526 1525 1522 1520 1516 1512 1508